• In Deutschland
  • Länderverzeichnis
  • Für 7 Tage
  • Wassertemperatur
  • Satellitenkarten
  • Wetterkarte
  • Widgets
  • user-avatar
    Anmelden

    Stündliche Wetter Herāt

    Heute, 22 September, Freitag

    Zeit Temperatur Niederschläge Wind Luftdruck Luftfeuchtigkeit
    00:00 +21°C° 0 mm 6 m/S 678 mmHg 22%
    01:00 +20°C° 0 mm 6 m/S 678 mmHg 23%
    02:00 +20°C° 0 mm 6 m/S 678 mmHg 24%
    03:00 +19°C° 0 mm 5 m/S 678 mmHg 24%
    04:00 +19°C° 0 mm 5 m/S 677 mmHg 25%
    05:00 +19°C° 0 mm 5 m/S 678 mmHg 25%
    06:00 +20°C° 0 mm 5 m/S 678 mmHg 24%
    07:00 +20°C° 0 mm 5 m/S 678 mmHg 23%
    08:00 +22°C° 0 mm 5 m/S 679 mmHg 21%
    09:00 +25°C° 0 mm 5 m/S 679 mmHg 18%
    10:00 +28°C° 0 mm 5 m/S 679 mmHg 16%
    11:00 +28°C° 0 mm 6 m/S 679 mmHg 15%
    12:00 +29°C° 0 mm 6 m/S 679 mmHg 14%
    13:00 +30°C° 0 mm 6 m/S 679 mmHg 13%
    14:00 +30°C° 0 mm 6 m/S 679 mmHg 13%
    15:00 +30°C° 0 mm 6 m/S 679 mmHg 13%
    16:00 +29°C° 0 mm 7 m/S 678 mmHg 13%
    17:00 +28°C° 0 mm 6 m/S 678 mmHg 15%
    18:00 +26°C° 0 mm 6 m/S 678 mmHg 17%
    19:00 +25°C° 0 mm 5 m/S 678 mmHg 18%
    20:00 +23°C° 0 mm 5 m/S 679 mmHg 19%
    21:00 +22°C° 0 mm 5 m/S 679 mmHg 19%
    22:00 +22°C° 0 mm 4 m/S 679 mmHg 20%
    23:00 +21°C° 0 mm 4 m/S 679 mmHg 20%

    Morgen, 23 September, Samstag

    Zeit Temperatur Niederschläge Wind Luftdruck Luftfeuchtigkeit
    00:00 +21°C° 0 mm 4 m/S 679 mmHg 21%
    01:00 +20°C° 0 mm 4 m/S 678 mmHg 21%
    02:00 +20°C° 0 mm 4 m/S 678 mmHg 21%
    03:00 +19°C° 0 mm 4 m/S 678 mmHg 22%
    04:00 +19°C° 0 mm 3 m/S 678 mmHg 22%
    05:00 +19°C° 0 mm 3 m/S 679 mmHg 22%
    06:00 +20°C° 0 mm 3 m/S 679 mmHg 21%
    07:00 +20°C° 0 mm 3 m/S 679 mmHg 21%
    08:00 +22°C° 0 mm 4 m/S 680 mmHg 19%
    09:00 +26°C° 0 mm 4 m/S 680 mmHg 16%
    10:00 +28°C° 0 mm 5 m/S 681 mmHg 14%
    11:00 +29°C° 0 mm 5 m/S 680 mmHg 13%
    12:00 +30°C° 0 mm 5 m/S 680 mmHg 12%
    13:00 +32°C° 0 mm 6 m/S 680 mmHg 10%
    14:00 +30°C° 0 mm 6 m/S 680 mmHg 10%
    15:00 +30°C° 0 mm 6 m/S 680 mmHg 10%
    16:00 +30°C° 0 mm 7 m/S 680 mmHg 11%
    17:00 +28°C° 0 mm 7 m/S 680 mmHg 12%
    18:00 +27°C° 0 mm 6 m/S 680 mmHg 13%
    19:00 +24°C° 0 mm 6 m/S 680 mmHg 14%
    20:00 +23°C° 0 mm 6 m/S 680 mmHg 15%
    21:00 +23°C° 0 mm 6 m/S 680 mmHg 15%
    22:00 +22°C° 0 mm 6 m/S 680 mmHg 16%
    23:00 +21°C° 0 mm 5 m/S 680 mmHg 16%

    übermorgen, 24 September, Sonntag

    Zeit Temperatur Niederschläge Wind Luftdruck Luftfeuchtigkeit
    00:00 +21°C° 0 mm 5 m/S 680 mmHg 17%
    01:00 +20°C° 0 mm 5 m/S 680 mmHg 17%
    02:00 +20°C° 0 mm 5 m/S 680 mmHg 17%
    03:00 +19°C° 0 mm 5 m/S 680 mmHg 18%
    04:00 +19°C° 0 mm 5 m/S 679 mmHg 18%
    05:00 +19°C° 0 mm 5 m/S 680 mmHg 18%
    06:00 +20°C° 0 mm 5 m/S 680 mmHg 18%
    07:00 +20°C° 0 mm 5 m/S 681 mmHg 17%
    08:00 +22°C° 0 mm 5 m/S 681 mmHg 15%
    09:00 +24°C° 0 mm 6 m/S 682 mmHg 13%
    10:00 +28°C° 0 mm 6 m/S 682 mmHg 11%
    11:00 +29°C° 0 mm 7 m/S 682 mmHg 10%
    12:00 +29°C° 0 mm 7 m/S 681 mmHg 9%
    13:00 +31°C° 0 mm 8 m/S 681 mmHg 8%
    14:00 +31°C° 0 mm 8 m/S 681 mmHg 9%
    15:00 +29°C° 0 mm 9 m/S 681 mmHg 9%
    16:00 +29°C° 0 mm 9 m/S 681 mmHg 9%
    17:00 +28°C° 0 mm 9 m/S 681 mmHg 10%
    18:00 +26°C° 0 mm 8 m/S 681 mmHg 12%
    19:00 +24°C° 0 mm 7 m/S 681 mmHg 13%
    20:00 +23°C° 0 mm 7 m/S 681 mmHg 13%
    21:00 +22°C° 0 mm 7 m/S 681 mmHg 14%
    22:00 +22°C° 0 mm 6 m/S 681 mmHg 14%
    23:00 +21°C° 0 mm 6 m/S 681 mmHg 15%

    25 September, Montag

    Zeit Temperatur Niederschläge Wind Luftdruck Luftfeuchtigkeit
    00:00 +20°C° 0 mm 6 m/S 681 mmHg 16%
    01:00 +20°C° 0 mm 5 m/S 681 mmHg 17%
    02:00 +19°C° 0 mm 5 m/S 681 mmHg 18%
    03:00 +19°C° 0 mm 5 m/S 680 mmHg 19%
    04:00 +17°C° 0 mm 5 m/S 680 mmHg 20%
    05:00 +19°C° 0 mm 5 m/S 681 mmHg 19%
    06:00 +19°C° 0 mm 5 m/S 681 mmHg 19%
    07:00 +20°C° 0 mm 5 m/S 682 mmHg 18%
    08:00 +22°C° 0 mm 6 m/S 682 mmHg 16%
    09:00 +24°C° 0 mm 7 m/S 682 mmHg 15%
    10:00 +27°C° 0 mm 8 m/S 683 mmHg 13%
    11:00 +28°C° 0 mm 8 m/S 682 mmHg 13%
    12:00 +29°C° 0 mm 8 m/S 682 mmHg 12%
    13:00 +31°C° 0 mm 9 m/S 681 mmHg 12%
    14:00 +29°C° 0 mm 9 m/S 681 mmHg 13%
    15:00 +29°C° 0 mm 9 m/S 681 mmHg 13%
    16:00 +28°C° 0 mm 10 m/S 681 mmHg 14%
    17:00 +27°C° 0 mm 9 m/S 681 mmHg 16%
    18:00 +24°C° 0 mm 8 m/S 681 mmHg 17%
    19:00 +23°C° 0 mm 7 m/S 681 mmHg 18%
    20:00 +22°C° 0 mm 7 m/S 681 mmHg 19%
    21:00 +21°C° 0 mm 6 m/S 681 mmHg 19%
    22:00 +20°C° 0 mm 6 m/S 681 mmHg 20%
    23:00 +20°C° 0 mm 6 m/S 681 mmHg 20%

    26 September, Dienstag

    Zeit Temperatur Niederschläge Wind Luftdruck Luftfeuchtigkeit
    00:00 +19°C° 0 mm 5 m/S 681 mmHg 20%
    01:00 +19°C° 0 mm 5 m/S 680 mmHg 20%
    02:00 +17°C° 0 mm 5 m/S 680 mmHg 20%
    03:00 +17°C° 0 mm 5 m/S 680 mmHg 20%
    04:00 +17°C° 0 mm 5 m/S 680 mmHg 21%
    05:00 +17°C° 0 mm 5 m/S 680 mmHg 20%
    06:00 +19°C° 0 mm 5 m/S 681 mmHg 19%
    07:00 +19°C° 0 mm 5 m/S 681 mmHg 18%
    08:00 +21°C° 0 mm 6 m/S 681 mmHg 16%
    09:00 +23°C° 0 mm 6 m/S 682 mmHg 14%
    10:00 +26°C° 0 mm 6 m/S 682 mmHg 11%
    11:00 +27°C° 0 mm 7 m/S 682 mmHg 11%
    12:00 +28°C° 0 mm 7 m/S 681 mmHg 10%
    13:00 +29°C° 0 mm 7 m/S 681 mmHg 10%
    14:00 +29°C° 0 mm 7 m/S 681 mmHg 10%
    15:00 +28°C° 0 mm 7 m/S 681 mmHg 10%
    16:00 +28°C° 0 mm 8 m/S 680 mmHg 10%
    17:00 +26°C° 0 mm 7 m/S 681 mmHg 11%
    18:00 +24°C° 0 mm 6 m/S 681 mmHg 12%
    19:00 +22°C° 0 mm 6 m/S 681 mmHg 13%
    20:00 +22°C° 0 mm 5 m/S 681 mmHg 13%
    21:00 +21°C° 0 mm 5 m/S 681 mmHg 13%
    22:00 +20°C° 0 mm 4 m/S 681 mmHg 14%
    23:00 +20°C° 0 mm 4 m/S 681 mmHg 14%

    27 September, Mittwoch

    Zeit Temperatur Niederschläge Wind Luftdruck Luftfeuchtigkeit
    00:00 +20°C° 0 mm 4 m/S 681 mmHg 14%
    01:00 +19°C° 0 mm 4 m/S 681 mmHg 14%
    02:00 +19°C° 0 mm 4 m/S 681 mmHg 14%
    03:00 +18°C° 0 mm 4 m/S 681 mmHg 14%
    04:00 +18°C° 0 mm 4 m/S 681 mmHg 14%
    05:00 +19°C° 0 mm 4 m/S 681 mmHg 14%
    06:00 +19°C° 0 mm 4 m/S 682 mmHg 14%
    07:00 +20°C° 0 mm 4 m/S 682 mmHg 13%
    08:00 +22°C° 0 mm 5 m/S 683 mmHg 13%
    09:00 +25°C° 0 mm 5 m/S 683 mmHg 12%
    10:00 +27°C° 0 mm 6 m/S 683 mmHg 11%
    11:00 +28°C° 0 mm 6 m/S 683 mmHg 11%
    12:00 +29°C° 0 mm 7 m/S 683 mmHg 11%
    13:00 +29°C° 0 mm 7 m/S 683 mmHg 10%
    14:00 +29°C° 0 mm 7 m/S 682 mmHg 11%
    15:00 +29°C° 0 mm 7 m/S 682 mmHg 11%
    16:00 +28°C° 0 mm 8 m/S 682 mmHg 11%
    17:00 +27°C° 0 mm 7 m/S 682 mmHg 13%
    18:00 +24°C° 0 mm 6 m/S 682 mmHg 14%
    19:00 +23°C° 0 mm 6 m/S 682 mmHg 16%
    20:00 +22°C° 0 mm 5 m/S 682 mmHg 18%
    21:00 +21°C° 0 mm 5 m/S 682 mmHg 20%
    22:00 +21°C° 0 mm 5 m/S 682 mmHg 22%
    23:00 +20°C° 0 mm 4 m/S 682 mmHg 23%
    Mehr zeigen